Flag for Kazakhstan Weather past 2 weeks in Qyzylorda, Kazakhstan

Now
90 °F

Passing clouds.


Feels Like: 86 °F
Forecast: 66 / 93 °F
Wind: 10 mph from Northwest

Location: Kzyl-Orda

Current Time: Jul 28, 2015 at 5:07:28 PM

Latest Report: Jul 28, 2015 at 4:30 PM


Visibility: N/A

Pressure: 29.71 "Hg

Humidity: 17%

Dew point: 39 °F

Location of QyzylordaLocation

Historic Weather in Qyzylorda — Graph

°F

Qyzylorda temperature yesterday

Maximum temperature yesterday: 93 °F (at 1:30 PM)
Minimum temperature yesterday: 63 °F (at 6:30 AM)
Average temperature yesterday: 82 °F

Past Weeks' High & Low Weather Summary

 TemperatureHumidityPressure
High113 °F (Jul 14, 4:30 PM)68% (Jul 27, 6:30 AM)29.92 "Hg (Jul 27, 6:30 AM)
Low59 °F (Jul 25, 6:30 AM)7% (Jul 14, 2:30 PM)29.53 "Hg (Jul 17, 6:00 PM)
Average86 °F28%29.73 "Hg
* Reported Jul 13 4:00 PM — Jul 28 4:00 PM, Qyzylorda, Weather by CustomWeather, © 2015

Note: Actual official high and low records may vary slightly from our data, if they occured in-between our weather recording intervals... More about our weather records

Advertising

Qyzylorda weather history for previous 24 hours

 ConditionsComfort  
Time TempWeatherWind HumidityBarometerVisibility
4:00 PM
Tue, Jul 28
90 °FPassing clouds.10 mph18%29.71 "HgN/A
3:30 PM88 °FPassing clouds.10 mph19%29.71 "HgN/A
3:00 PM88 °FSunny.8 mph19%29.71 "Hg10 mi
2:30 PM88 °FSunny.8 mph19%29.71 "Hg10 mi
2:00 PM88 °FSunny.3 mph19%29.74 "Hg10 mi
1:30 PM90 °FPassing clouds.6 mph18%29.74 "HgN/A
1:00 PM88 °FPassing clouds.6 mph18%29.74 "HgN/A
12:30 PM86 °FPassing clouds.6 mph19%29.74 "HgN/A
12:00 PM86 °FPassing clouds.6 mph20%29.74 "HgN/A
11:30 AM84 °FSunny.6 mph22%29.74 "Hg10 mi
11:00 AM84 °FSunny.6 mph23%29.74 "Hg10 mi
10:30 AM82 °FSunny.1 mph25%29.74 "Hg10 mi
10:00 AM81 °FSunny.No wind28%29.74 "Hg10 mi
9:30 AM79 °FSunny.No wind28%29.71 "Hg10 mi
9:00 AM73 °FSunny.No wind33%29.71 "Hg10 mi
8:30 AM72 °FSunny.1 mph36%29.71 "Hg10 mi
8:00 AM66 °FSunny.1 mph46%29.71 "Hg10 mi
7:30 AM64 °FSunny.1 mph49%29.71 "Hg10 mi
7:00 AM63 °FClear.1 mph49%29.68 "Hg10 mi
6:30 AM63 °FClear.1 mph49%29.68 "Hg10 mi
6:00 AM63 °FClear.3 mph49%29.68 "Hg10 mi
5:30 AM63 °FClear.3 mph49%29.68 "Hg10 mi
5:00 AM63 °FClear.3 mph49%29.68 "Hg10 mi
4:00 AM66 °FClear.3 mph40%29.68 "Hg10 mi
3:00 AM66 °FClear.3 mph43%29.65 "Hg10 mi
2:00 AM70 °FClear.6 mph38%29.65 "Hg10 mi
1:00 AM68 °FClear.3 mph49%29.65 "Hg10 mi
12:00 AM68 °FClear.3 mph49%29.65 "Hg10 mi
11:00 PM
Mon, Jul 27
72 °FClear.1 mph38%29.65 "Hg10 mi
10:00 PM77 °FSunny.3 mph32%29.62 "Hg10 mi
9:00 PM86 °FSunny.3 mph20%29.62 "Hg10 mi
8:30 PM86 °FSunny.8 mph19%29.62 "Hg10 mi
8:00 PM90 °FSunny.8 mph13%29.62 "Hg10 mi
7:30 PM91 °FSunny.8 mph13%29.62 "Hg10 mi
7:00 PM91 °FPassing clouds.10 mph13%29.62 "HgN/A
6:30 PM91 °FPassing clouds.10 mph12%29.62 "HgN/A
6:00 PM91 °FPassing clouds.13 mph13%29.62 "HgN/A
5:30 PM93 °FPassing clouds.10 mph11%29.62 "HgN/A
5:00 PM93 °FSunny.15 mph12%29.62 "Hg10 mi
Weather by CustomWeather, © 2015

See weather overviewHow to use our weather pages